Location: Peterborough
(44.3091°N, 78.3197°W)
Time: 20:18:14
(UTC-04:00)

Courier 1B Rocket - Pass Details

Date: 31 March 2023
Orbit: 920 x 1202 km, 28.2° (Epoch: 04 June)

Event Time Altitude Azimuth Distance (km) Brightness Sun altitude
Rises 22:28:44 0° 251° (WSW) 3,885 8.5 -28.4°
Reaches altitude 10° 22:32:51 10° 230° (SW) 2,864 7.5 -28.9°
Enters shadow 22:34:58 14° 212° (SSW) 2,538 7.1 -29.2°
